TimeCDT,TemperatureF,Dew PointF,Humidity,Sea Level PressureIn,VisibilityMPH,Wind Direction,Wind SpeedMPH,Gust SpeedMPH,PrecipitationIn,Events,Conditions,WindDirDegrees,DateUTC
12:58 AM,78.1,71.1,79,29.90,10.0,South,2.3,-,N/A,,Partly Cloudy,170,2013-07-12 05:58:00
1:58 AM,78.4,71.6,79,29.90,10.0,SE,4.6,-,N/A,,Mostly Cloudy,140,2013-07-12 06:58:00
2:58 AM,76.6,71.2,83,29.90,10.0,SSE,5.8,-,N/A,,Clear,150,2013-07-12 07:58:00
3:58 AM,76.6,70.7,82,29.90,10.0,SE,2.3,-,N/A,,Clear,140,2013-07-12 08:58:00
4:58 AM,75.7,70.7,84,29.90,10.0,ESE,3.5,-,N/A,,Clear,120,2013-07-12 09:58:00
5:58 AM,75.2,70.2,84,29.91,10.0,SSE,3.5,-,N/A,,Clear,150,2013-07-12 10:58:00
6:58 AM,74.7,70.0,85,29.91,10.0,ESE,4.6,-,N/A,,Clear,120,2013-07-12 11:58:00
7:58 AM,78.1,70.2,77,29.93,10.0,SE,6.9,-,N/A,,Clear,130,2013-07-12 12:58:00
8:58 AM,82.6,70.2,66,29.94,10.0,SSE,10.4,-,N/A,,Clear,150,2013-07-12 13:58:00
9:58 AM,86.4,70.2,58,29.94,10.0,South,9.2,-,N/A,,Clear,170,2013-07-12 14:58:00
10:58 AM,90.9,68.4,47,29.93,10.0,South,11.5,-,N/A,,Clear,170,2013-07-12 15:58:00
11:58 AM,93.6,66.0,40,29.94,10.0,South,5.8,-,N/A,,Clear,180,2013-07-12 16:58:00
12:58 PM,96.4,66.6,37,29.91,10.0,WSW,8.1,-,N/A,,Clear,240,2013-07-12 17:58:00
1:58 PM,97.9,63.1,32,29.90,10.0,SSE,8.1,-,N/A,,Clear,150,2013-07-12 18:58:00
2:45 PM,98.6,66.2,35,29.92,10.0,SSE,16.1,19.6,N/A,,Partly Cloudy,160,2013-07-12 19:45:00
2:58 PM,99.9,66.7,34,29.88,10.0,SE,11.5,18.4,N/A,,Partly Cloudy,140,2013-07-12 19:58:00
3:58 PM,100.6,64.9,31,29.87,10.0,South,9.2,-,N/A,,Clear,170,2013-07-12 20:58:00
4:58 PM,100.4,63.5,30,29.86,10.0,South,16.1,-,N/A,,Clear,170,2013-07-12 21:58:00
5:31 PM,100.4,62.6,29,29.89,10.0,East,15.0,19.6,N/A,,Clear,100,2013-07-12 22:31:00
5:58 PM,100.2,63.1,30,29.86,10.0,SE,12.7,21.9,N/A,,Partly Cloudy,130,2013-07-12 22:58:00
6:58 PM,98.8,61.9,30,29.84,10.0,SE,16.1,-,N/A,,Clear,130,2013-07-12 23:58:00
7:58 PM,96.1,64.4,35,29.86,10.0,SE,15.0,21.9,N/A,,Clear,130,2013-07-13 00:58:00
8:58 PM,92.8,65.8,41,29.86,10.0,SE,12.7,-,N/A,,Clear,130,2013-07-13 01:58:00
9:58 PM,89.6,68.4,49,29.88,10.0,SE,11.5,-,N/A,,Clear,130,2013-07-13 02:58:00
10:58 PM,88.0,67.8,51,29.88,10.0,SE,12.7,-,N/A,,Clear,140,2013-07-13 03:58:00
11:58 PM,86.2,66.4,51,29.90,10.0,SE,10.4,-,N/A,,Clear,130,2013-07-13 04:58:00